TimeEDT,TemperatureF,Dew PointF,Humidity,Sea Level PressureIn,VisibilityMPH,Wind Direction,Wind SpeedMPH,Gust SpeedMPH,PrecipitationIn,Events,Conditions,WindDirDegrees,DateUTC
12:15 AM,24.8,19.4,80,29.66,10.0,NW,12.7,19.6,N/A,,Overcast,320,2013-03-15 04:15:00
12:35 AM,24.8,19.4,80,29.67,10.0,NNW,9.2,19.6,N/A,,Overcast,330,2013-03-15 04:35:00
12:55 AM,24.8,17.6,74,29.66,10.0,NNW,15.0,23.0,N/A,,Overcast,330,2013-03-15 04:55:00
1:16 AM,24.8,17.6,74,29.67,9.0,NNW,16.1,23.0,N/A,,Overcast,330,2013-03-15 05:16:00
1:35 AM,23.0,17.6,80,29.67,10.0,NNW,15.0,20.7,N/A,,Overcast,330,2013-03-15 05:35:00
1:55 AM,23.0,17.6,80,29.68,10.0,NW,13.8,21.9,N/A,,Overcast,320,2013-03-15 05:55:00
2:15 AM,21.2,17.6,86,29.68,10.0,NNW,13.8,19.6,N/A,,Overcast,330,2013-03-15 06:15:00
2:35 AM,21.2,17.6,86,29.68,10.0,NW,8.1,20.7,N/A,,Overcast,320,2013-03-15 06:35:00
2:55 AM,21.2,15.8,80,29.68,10.0,NW,10.4,17.3,N/A,,Overcast,320,2013-03-15 06:55:00
3:15 AM,21.2,15.8,80,29.67,10.0,NW,12.7,18.4,N/A,,Overcast,310,2013-03-15 07:15:00
3:55 AM,21.2,17.6,86,29.67,7.0,NW,9.2,-,N/A,,Overcast,310,2013-03-15 07:55:00
4:15 AM,21.2,17.6,86,29.67,6.0,NNW,10.4,20.7,N/A,,Overcast,330,2013-03-15 08:15:00
4:35 AM,21.2,17.6,86,29.68,8.0,NW,11.5,18.4,N/A,,Overcast,310,2013-03-15 08:35:00
4:55 AM,21.2,15.8,80,29.68,8.0,NNW,10.4,23.0,N/A,,Overcast,330,2013-03-15 08:55:00
5:15 AM,19.4,15.8,86,29.68,7.0,NNW,11.5,18.4,N/A,,Overcast,330,2013-03-15 09:15:00
5:35 AM,19.4,15.8,86,29.69,8.0,NNW,10.4,20.7,N/A,,Overcast,330,2013-03-15 09:35:00
5:55 AM,19.4,14.0,80,29.69,10.0,NW,13.8,20.7,N/A,,Overcast,320,2013-03-15 09:55:00
6:15 AM,19.4,12.2,74,29.70,10.0,NNW,9.2,18.4,N/A,,Overcast,330,2013-03-15 10:15:00
6:35 AM,19.4,12.2,74,29.71,10.0,NW,9.2,16.1,N/A,,Overcast,320,2013-03-15 10:35:00
6:55 AM,19.4,10.4,68,29.72,10.0,NW,12.7,20.7,N/A,,Mostly Cloudy,320,2013-03-15 10:55:00
7:15 AM,19.4,10.4,68,29.72,10.0,NW,9.2,-,N/A,,Overcast,310,2013-03-15 11:15:00
7:35 AM,19.4,10.4,68,29.72,10.0,NNW,11.5,17.3,N/A,,Overcast,330,2013-03-15 11:35:00
7:55 AM,19.4,10.4,68,29.72,10.0,NNW,12.7,19.6,N/A,,Overcast,330,2013-03-15 11:55:00
8:15 AM,19.4,10.4,68,29.73,10.0,NNW,10.4,17.3,N/A,,Overcast,330,2013-03-15 12:15:00
8:35 AM,21.2,10.4,63,29.73,10.0,NNW,13.8,18.4,N/A,,Overcast,330,2013-03-15 12:35:00
8:55 AM,21.2,10.4,63,29.72,10.0,NNW,5.8,-,N/A,,Overcast,340,2013-03-15 12:55:00
9:15 AM,21.2,10.4,63,29.72,10.0,NW,12.7,-,N/A,,Partly Cloudy,310,2013-03-15 13:15:00
9:35 AM,23.0,8.6,54,29.72,10.0,NNW,9.2,-,N/A,,Clear,340,2013-03-15 13:35:00
9:55 AM,24.8,10.4,54,29.72,10.0,NW,12.7,16.1,N/A,,Clear,310,2013-03-15 13:55:00
10:15 AM,26.6,10.4,51,29.71,10.0,NW,10.4,-,N/A,,Clear,320,2013-03-15 14:15:00
10:35 AM,26.6,10.4,51,29.71,10.0,NNW,10.4,17.3,N/A,,Clear,340,2013-03-15 14:35:00
10:55 AM,26.6,10.4,51,29.70,10.0,NNW,8.1,16.1,N/A,,Clear,330,2013-03-15 14:55:00
11:15 AM,28.4,10.4,47,29.69,10.0,NW,6.9,-,N/A,,Clear,310,2013-03-15 15:15:00
11:35 AM,28.4,10.4,47,29.69,10.0,NW,9.2,16.1,N/A,,Clear,320,2013-03-15 15:35:00
11:55 AM,28.4,10.4,47,29.68,10.0,West,10.4,-,N/A,,Clear,280,2013-03-15 15:55:00
12:15 PM,30.2,12.2,47,29.67,10.0,NNW,8.1,-,N/A,,Clear,330,2013-03-15 16:15:00
12:36 PM,30.2,12.2,47,29.67,10.0,West,5.8,-,N/A,,Clear,280,2013-03-15 16:36:00
12:55 PM,32.0,12.2,44,29.66,10.0,WSW,6.9,-,N/A,,Clear,250,2013-03-15 16:55:00
1:15 PM,32.0,10.4,41,29.65,10.0,West,6.9,16.1,N/A,,Clear,270,2013-03-15 17:15:00
1:35 PM,32.0,10.4,41,29.64,10.0,NW,6.9,-,N/A,,Clear,310,2013-03-15 17:35:00
1:55 PM,32.0,10.4,41,29.63,10.0,NW,3.5,17.3,N/A,,Clear,310,2013-03-15 17:55:00
2:15 PM,33.8,8.6,35,29.62,10.0,West,9.2,-,N/A,,Clear,260,2013-03-15 18:15:00
2:55 PM,33.8,8.6,35,29.61,10.0,NW,8.1,-,N/A,,Clear,310,2013-03-15 18:55:00
3:15 PM,33.8,8.6,35,29.60,10.0,WNW,12.7,19.6,N/A,,Clear,290,2013-03-15 19:15:00
3:35 PM,33.8,8.6,35,29.60,10.0,WNW,9.2,17.3,N/A,,Clear,300,2013-03-15 19:35:00
3:55 PM,33.8,6.8,32,29.59,10.0,NW,8.1,-,N/A,,Clear,310,2013-03-15 19:55:00
4:15 PM,33.8,8.6,35,29.59,10.0,West,8.1,-,N/A,,Clear,260,2013-03-15 20:15:00
4:35 PM,35.6,8.6,33,29.59,10.0,WNW,4.6,-,N/A,,Clear,290,2013-03-15 20:35:00
4:55 PM,35.6,6.8,30,29.58,10.0,WNW,6.9,-,N/A,,Clear,290,2013-03-15 20:55:00
5:15 PM,35.6,6.8,30,29.58,10.0,WNW,4.6,-,N/A,,Clear,300,2013-03-15 21:15:00
5:35 PM,33.8,5.0,30,29.59,10.0,WNW,6.9,-,N/A,,Clear,300,2013-03-15 21:35:00
5:55 PM,33.8,6.8,32,29.59,10.0,West,4.6,-,N/A,,Clear,280,2013-03-15 21:55:00
6:15 PM,32.0,10.4,41,29.59,10.0,WSW,4.6,-,N/A,,Mostly Cloudy,250,2013-03-15 22:15:00
6:35 PM,30.2,10.4,44,29.60,10.0,West,5.8,-,N/A,,Overcast,260,2013-03-15 22:35:00
6:55 PM,30.2,12.2,47,29.61,10.0,WSW,3.5,-,N/A,,Overcast,250,2013-03-15 22:55:00
7:15 PM,30.2,12.2,47,29.61,10.0,WSW,3.5,-,N/A,,Overcast,250,2013-03-15 23:15:00
7:35 PM,30.2,15.8,55,29.61,10.0,Calm,Calm,-,N/A,,Overcast,0,2013-03-15 23:35:00
7:55 PM,30.2,15.8,55,29.61,10.0,Calm,Calm,-,N/A,,Overcast,0,2013-03-15 23:55:00
8:15 PM,28.4,15.8,59,29.62,10.0,Calm,Calm,-,N/A,,Mostly Cloudy,0,2013-03-16 00:15:00
8:35 PM,28.4,15.8,59,29.62,10.0,Calm,Calm,-,N/A,,Mostly Cloudy,0,2013-03-16 00:35:00
8:55 PM,28.4,15.8,59,29.62,10.0,Calm,Calm,-,N/A,,Partly Cloudy,0,2013-03-16 00:55:00
9:15 PM,26.6,17.6,69,29.62,10.0,Calm,Calm,-,N/A,,Partly Cloudy,0,2013-03-16 01:15:00
9:35 PM,26.6,15.8,64,29.62,8.0,Calm,Calm,-,N/A,,Partly Cloudy,0,2013-03-16 01:35:00
9:55 PM,26.6,15.8,64,29.61,10.0,Calm,Calm,-,N/A,,Scattered Clouds,0,2013-03-16 01:55:00
10:15 PM,24.8,15.8,69,29.61,10.0,Calm,Calm,-,N/A,,Partly Cloudy,0,2013-03-16 02:15:00
10:35 PM,24.8,15.8,69,29.61,9.0,Calm,Calm,-,N/A,,Clear,0,2013-03-16 02:35:00
10:55 PM,24.8,17.6,74,29.60,9.0,Calm,Calm,-,N/A,,Clear,0,2013-03-16 02:55:00
11:15 PM,23.0,17.6,80,29.60,10.0,Calm,Calm,-,N/A,,Mostly Cloudy,0,2013-03-16 03:15:00
11:35 PM,24.8,17.6,74,29.60,9.0,Calm,Calm,-,N/A,,Overcast,0,2013-03-16 03:35:00
11:55 PM,24.8,19.4,80,29.60,10.0,Calm,Calm,-,N/A,,Mostly Cloudy,0,2013-03-16 03:55:00